Lander, WY

4:29 PM MDT on March 25, 2017 (GMT -0600)
Hunt

Weather History for KLND - November, 2013

Change the Weather History Date:

Monday, November 4, 2013

  Actual Average Record
Temperature  
Mean Temperature 27 °F 38 °F  
Max Temperature 37 °F 50 °F 69 °F (1980)
Min Temperature 17 °F 26 °F -2 °F (1991)
Degree Days  
Heating Degree Days 38 27  
Month to date heating degree days 114 106  
Since 1 July heating degree days 1059 967  
Cooling Degree Days 0 0  
Month to date cooling degree days 0 0  
Year to date cooling degree days 743 472  
Moisture  
Dew Point 10 °F    
Average Humidity 49    
Maximum Humidity 68    
Minimum Humidity 29    
Precipitation  
Precipitation 0.00 in 0.03 in 0.82 in (1940)
Month to date precipitation 0.00 0.13  
Year to date precipitation 14.72 11.35  
Snow  
Snow 0.00 in 0.40 in - ()
Month to date snowfall 0.0 1.6  
Since 1 July snowfall 26.0 14.1  
Since 1 September snowfall 26.0 14.1  
Snow Depth 0.00 in    
Sea Level Pressure  
Sea Level Pressure 30.00 in    
Wind  
Wind Speed 4 mph (SW)    
Max Wind Speed 14 mph    
Max Gust Speed 15 mph    
Visibility 10 miles    
Events      
T = Trace of Precipitation, MM = Missing Value Source: NWS Daily Summary

Daily Weather History Graph

Daily Weather History Graph

Search for Another Location

Airport or City:

Trip Planner

Search our weather history database for the weather conditions in past years. The results will help you decide how hot, cold, wet, or windy it might be!

Date:

Astronomy

Nov. 04, 2013 Rise Set
Actual Time 6:53 AM MST 5:03 PM MST
Civil Twilight 6:23 AM MST 5:32 PM MST
Nautical Twilight 5:49 AM MST 6:06 PM MST
Astronomical Twilight 5:16 AM MST 6:39 PM MST
Moon 8:08 AM MST (11/4) 6:08 PM MST (11/4)
Length of Visible Light 11h 09m
Length of Day
10h 09m
New Moon, 2% of the Moon is Illuminated
Nov 4
New Moon
Nov 9
First Quarter
Nov 17
Full
Nov 25
Last Quarter
Dec 2
New

Hourly Weather History & Observations

Time (MST) Temp. Windchill Dew Point Humidity Pressure Visibility Wind Dir Wind Speed Gust Speed Precip Events Conditions
12:53 AM 24.1 °F - 16.0 °F 71% 29.91 in 10.0 mi Calm Calm - N/A   Clear
1:53 AM 23.0 °F 14.7 °F 9.0 °F 55% 29.94 in 10.0 mi WSW 6.9 mph - N/A   Clear
2:53 AM 19.0 °F 12.3 °F 10.9 °F 71% 29.96 in 10.0 mi SSE 4.6 mph - N/A   Clear
3:53 AM 23.0 °F 17.0 °F 9.0 °F 55% 29.95 in 10.0 mi SSW 4.6 mph - N/A   Clear
4:53 AM 19.0 °F - 10.0 °F 68% 29.99 in 10.0 mi Calm Calm - N/A   Clear
5:53 AM 19.0 °F - 10.9 °F 71% 29.99 in 10.0 mi Calm Calm - N/A   Clear
6:53 AM 21.0 °F 16.2 °F 8.1 °F 57% 30.01 in 10.0 mi Variable 3.5 mph - N/A   Clear
7:53 AM 21.9 °F 17.2 °F 10.9 °F 63% 30.03 in 10.0 mi East 3.5 mph - N/A   Clear
8:53 AM 26.1 °F - 16.0 °F 66% 30.04 in 10.0 mi Calm Calm - N/A   Clear
9:53 AM 30.0 °F - 10.9 °F 45% 30.01 in 10.0 mi Calm Calm - N/A   Clear
10:53 AM 32.0 °F 28.7 °F 10.9 °F 42% 30.00 in 10.0 mi Variable 3.5 mph - N/A   Clear
11:53 AM 34.0 °F - 10.0 °F 37% 29.96 in 10.0 mi North - - N/A   Clear
12:53 PM 36.0 °F 32.1 °F 12.0 °F 37% 29.94 in 10.0 mi East 4.6 mph - N/A   Clear
1:53 PM 35.1 °F - 7.0 °F 31% 29.94 in 10.0 mi Calm Calm - N/A   Clear
2:53 PM 37.0 °F 32.4 °F 10.0 °F 33% 29.94 in 10.0 mi East 5.8 mph - N/A   Clear
3:53 PM 34.0 °F 29.8 °F 9.0 °F 35% 29.95 in 10.0 mi North 4.6 mph - N/A   Clear
4:53 PM 32.0 °F - 8.1 °F 37% 29.99 in 10.0 mi Calm Calm - N/A   Clear
5:53 PM 28.0 °F 19.3 °F 12.0 °F 51% 30.02 in 10.0 mi WSW 9.2 mph - N/A   Clear
6:53 PM 28.0 °F 18.1 °F 10.0 °F 47% 30.04 in 10.0 mi WSW 11.5 mph - N/A   Clear
7:53 PM 26.1 °F 17.6 °F 9.0 °F 49% 30.07 in 10.0 mi WNW 8.1 mph - N/A   Mostly Cloudy
8:53 PM 26.1 °F 18.4 °F 14.0 °F 60% 30.07 in 10.0 mi WSW 6.9 mph - N/A   Partly Cloudy
9:53 PM 26.1 °F 19.4 °F 9.0 °F 49% 30.06 in 10.0 mi West 5.8 mph - N/A   Scattered Clouds
10:53 PM 25.0 °F 20.7 °F 8.1 °F 49% 30.06 in 10.0 mi West 3.5 mph - N/A   Clear
11:53 PM 21.9 °F 17.2 °F 8.1 °F 55% 30.09 in 10.0 mi SSW 3.5 mph - N/A   Clear